SHT2BE EGLL-EGCC

Flight info

Callsign SHT2BE
Flight time 0h 31m
Altitude 16000
Route ULTIB T420 ELVOS
Aircraft A319/M-SDE3FGHIRWY/LB1

Departure

Time 2026-04-30 19:27
Airport London Heathrow Airport (EGLL)

Arrival

Time 2026-04-30 19:59
Airport Manchester Airport (EGCC)
Time Latitude Longitude Altitude Speed Heading
2026-04-30 18:46 51.47398 -0.48757 86 ft 0 kts 180°
2026-04-30 19:12 51.47400 -0.48757 86 ft 2 kts 180°
2026-04-30 19:12 51.47427 -0.48758 86 ft 4 kts 180°
2026-04-30 19:12 51.47453 -0.48758 86 ft 4 kts 179°
2026-04-30 19:13 51.47486 -0.48793 87 ft 1 kts 90°
2026-04-30 19:13 51.47486 -0.48819 87 ft 0 kts 90°
2026-04-30 19:20 51.47486 -0.48800 87 ft 4 kts 90°
2026-04-30 19:20 51.47487 -0.48738 89 ft 7 kts 90°
2026-04-30 19:20 51.47487 -0.48526 86 ft 10 kts 95°
2026-04-30 19:21 51.47430 -0.48476 86 ft 12 kts 179°
2026-04-30 19:21 51.47236 -0.48473 86 ft 14 kts 181°
2026-04-30 19:22 51.47044 -0.48470 86 ft 14 kts 179°
2026-04-30 19:22 51.46732 -0.48468 86 ft 5 kts 179°
2026-04-30 19:23 51.46644 -0.48468 86 ft 8 kts 180°
2026-04-30 19:24 51.46600 -0.48468 87 ft 0 kts 180°
2026-04-30 19:25 51.46526 -0.48467 87 ft 8 kts 180°
2026-04-30 19:26 51.46479 -0.48348 87 ft 1 kts 89°
2026-04-30 19:26 51.46480 -0.48260 89 ft 20 kts 89°
2026-04-30 19:26 51.46482 -0.47673 86 ft 85 kts 90°
2026-04-30 19:27 51.46494 -0.44703 540 ft 155 kts 90°
2026-04-30 19:27 51.46703 -0.41162 1832 ft 178 kts 72°
2026-04-30 19:28 51.47480 -0.39400 2215 ft 208 kts 57°
2026-04-30 19:28 51.49518 -0.35341 3419 ft 254 kts 57°
2026-04-30 19:29 51.51837 -0.30729 5341 ft 275 kts 55°
2026-04-30 19:29 51.52717 -0.28009 6335 ft 276 kts 74°
2026-04-30 19:30 51.57089 -0.22388 9306 ft 305 kts 360°
2026-04-30 19:30 51.61374 -0.23623 10782 ft 334 kts 339°
2026-04-30 19:31 51.65565 -0.27553 12004 ft 358 kts 327°
2026-04-30 19:31 51.67704 -0.29671 12804 ft 363 kts 328°
2026-04-30 19:31 51.72124 -0.33871 14362 ft 374 kts 329°
2026-04-30 19:32 51.74379 -0.36000 15076 ft 378 kts 329°
2026-04-30 19:32 51.76622 -0.38135 15788 ft 381 kts 329°
2026-04-30 19:32 51.78913 -0.40338 16095 ft 384 kts 329°
2026-04-30 19:32 51.81206 -0.42556 16192 ft 383 kts 329°
2026-04-30 19:33 51.83481 -0.44761 16224 ft 381 kts 329°
2026-04-30 19:33 51.85749 -0.46965 16221 ft 380 kts 329°
2026-04-30 19:33 51.88016 -0.49172 16217 ft 380 kts 329°
2026-04-30 19:33 51.90281 -0.51381 16221 ft 380 kts 329°
2026-04-30 19:34 51.92542 -0.53586 16220 ft 380 kts 329°
2026-04-30 19:34 51.94813 -0.55797 16219 ft 380 kts 329°
2026-04-30 19:34 51.99345 -0.60215 16217 ft 380 kts 329°
2026-04-30 19:35 52.01609 -0.62431 16222 ft 381 kts 329°
2026-04-30 19:35 52.03888 -0.64669 16776 ft 383 kts 329°
2026-04-30 19:35 52.06177 -0.66920 17506 ft 386 kts 328°
2026-04-30 19:35 52.08484 -0.69188 18025 ft 389 kts 328°
2026-04-30 19:36 52.10832 -0.71499 18192 ft 389 kts 328°
2026-04-30 19:36 52.13148 -0.73774 18229 ft 389 kts 328°
2026-04-30 19:36 52.17740 -0.78297 18214 ft 389 kts 328°
2026-04-30 19:37 52.20050 -0.80587 18216 ft 389 kts 328°
2026-04-30 19:37 52.22358 -0.82884 18218 ft 389 kts 328°
2026-04-30 19:37 52.24667 -0.85184 18218 ft 389 kts 328°
2026-04-30 19:37 52.26980 -0.87484 18216 ft 389 kts 328°
2026-04-30 19:38 52.29288 -0.89773 18220 ft 388 kts 328°
2026-04-30 19:38 52.31624 -0.92089 18217 ft 387 kts 328°
2026-04-30 19:38 52.33927 -0.94379 18230 ft 387 kts 328°
2026-04-30 19:38 52.36198 -0.96643 18227 ft 387 kts 328°
2026-04-30 19:39 52.38532 -0.98971 18238 ft 387 kts 328°
2026-04-30 19:39 52.40800 -1.01236 18233 ft 388 kts 328°
2026-04-30 19:39 52.43142 -1.03578 18186 ft 389 kts 328°
2026-04-30 19:39 52.45456 -1.05891 18172 ft 390 kts 328°
2026-04-30 19:40 52.47768 -1.08206 18156 ft 390 kts 328°
2026-04-30 19:40 52.50085 -1.10533 18143 ft 390 kts 328°
2026-04-30 19:40 52.52394 -1.12860 18131 ft 390 kts 328°
2026-04-30 19:40 52.54677 -1.15164 18123 ft 390 kts 328°
2026-04-30 19:41 52.56986 -1.17497 18112 ft 390 kts 328°
2026-04-30 19:41 52.59297 -1.19829 18110 ft 390 kts 328°
2026-04-30 19:41 52.61607 -1.22162 18097 ft 390 kts 328°
2026-04-30 19:41 52.63921 -1.24498 18095 ft 390 kts 328°
2026-04-30 19:42 52.66230 -1.26833 18089 ft 390 kts 328°
2026-04-30 19:42 52.68544 -1.29176 18094 ft 390 kts 328°
2026-04-30 19:42 52.70851 -1.31516 18089 ft 389 kts 328°
2026-04-30 19:42 52.73150 -1.33852 17985 ft 384 kts 328°
2026-04-30 19:43 52.75395 -1.36140 17851 ft 376 kts 328°
2026-04-30 19:43 52.77609 -1.38406 17586 ft 372 kts 327°
2026-04-30 19:43 52.79774 -1.40626 17328 ft 370 kts 327°
2026-04-30 19:44 52.84147 -1.45104 16810 ft 368 kts 327°
2026-04-30 19:44 52.86318 -1.47326 16552 ft 367 kts 328°
2026-04-30 19:44 52.88487 -1.49549 16311 ft 366 kts 327°
2026-04-30 19:44 52.90646 -1.51770 16091 ft 365 kts 327°
2026-04-30 19:45 52.92806 -1.53986 15837 ft 366 kts 327°
2026-04-30 19:45 52.94957 -1.56197 15506 ft 361 kts 327°
2026-04-30 19:45 52.97087 -1.58392 15030 ft 360 kts 327°
2026-04-30 19:45 52.99208 -1.60587 14554 ft 359 kts 327°
2026-04-30 19:46 53.01324 -1.62779 14068 ft 358 kts 327°
2026-04-30 19:46 53.03432 -1.64966 13548 ft 356 kts 327°
2026-04-30 19:46 53.05431 -1.67342 13101 ft 351 kts 316°
2026-04-30 19:46 53.07099 -1.70260 12659 ft 346 kts 308°
2026-04-30 19:47 53.08660 -1.73280 12327 ft 339 kts 308°
2026-04-30 19:47 53.09664 -1.75226 12245 ft 331 kts 308°
2026-04-30 19:47 53.11645 -1.79064 11856 ft 324 kts 308°
2026-04-30 19:47 53.13110 -1.81913 11487 ft 322 kts 308°
2026-04-30 19:48 53.14561 -1.84732 11128 ft 320 kts 308°
2026-04-30 19:48 53.16001 -1.87534 10753 ft 317 kts 308°
2026-04-30 19:48 53.17431 -1.90319 10402 ft 315 kts 308°
2026-04-30 19:48 53.18851 -1.93083 9973 ft 312 kts 308°
2026-04-30 19:49 53.20253 -1.95823 9450 ft 310 kts 308°
2026-04-30 19:49 53.22949 -2.01097 8979 ft 288 kts 308°
2026-04-30 19:49 53.24234 -2.03624 8552 ft 284 kts 307°
2026-04-30 19:50 53.25135 -2.06527 8192 ft 284 kts 278°
2026-04-30 19:50 53.25208 -2.09807 8196 ft 285 kts 262°
2026-04-30 19:50 53.25049 -2.13097 8082 ft 283 kts 261°
2026-04-30 19:50 53.24869 -2.16357 7624 ft 281 kts 261°
2026-04-30 19:51 53.24683 -2.19602 7163 ft 280 kts 260°
2026-04-30 19:51 53.24501 -2.22769 7000 ft 267 kts 260°
2026-04-30 19:51 53.24338 -2.25788 6832 ft 256 kts 261°
2026-04-30 19:51 53.24171 -2.28689 6614 ft 247 kts 258°
2026-04-30 19:52 53.23900 -2.31497 6273 ft 243 kts 255°
2026-04-30 19:52 53.23604 -2.34260 5918 ft 241 kts 255°
2026-04-30 19:52 53.23306 -2.37004 5526 ft 239 kts 255°
2026-04-30 19:52 53.23010 -2.39721 5137 ft 237 kts 255°
2026-04-30 19:53 53.22725 -2.42413 4771 ft 234 kts 255°
2026-04-30 19:53 53.22440 -2.45084 4369 ft 233 kts 255°
2026-04-30 19:53 53.22169 -2.47748 3957 ft 233 kts 255°
2026-04-30 19:53 53.22185 -2.50465 3519 ft 241 kts 282°
2026-04-30 19:54 53.23067 -2.52852 3098 ft 248 kts 320°
2026-04-30 19:54 53.24660 -2.53799 3008 ft 248 kts
2026-04-30 19:54 53.26219 -2.52901 3004 ft 228 kts 47°
2026-04-30 19:54 53.26940 -2.50841 3009 ft 193 kts 89°
2026-04-30 19:55 53.27101 -2.48668 2913 ft 187 kts 89°
2026-04-30 19:55 53.27303 -2.46562 2735 ft 180 kts 89°
2026-04-30 19:55 53.27579 -2.44543 2528 ft 179 kts 78°
2026-04-30 19:55 53.28155 -2.42699 2323 ft 179 kts 67°
2026-04-30 19:56 53.28871 -2.41006 2088 ft 177 kts 63°
2026-04-30 19:56 53.29610 -2.39425 1882 ft 167 kts 61°
2026-04-30 19:56 53.30302 -2.37989 1642 ft 148 kts 60°
2026-04-30 19:56 53.30901 -2.36753 1477 ft 131 kts 60°
2026-04-30 19:57 53.31449 -2.35618 1299 ft 122 kts 60°
2026-04-30 19:57 53.31983 -2.34510 1129 ft 122 kts 59°
2026-04-30 19:57 53.32511 -2.33419 971 ft 118 kts 57°
2026-04-30 19:57 53.33044 -2.32360 828 ft 120 kts 53°
2026-04-30 19:58 53.33587 -2.31242 645 ft 125 kts 55°
2026-04-30 19:58 53.34128 -2.30102 428 ft 122 kts 53°
2026-04-30 19:58 53.34655 -2.28998 281 ft 120 kts 54°
2026-04-30 19:58 53.35173 -2.27908 237 ft 121 kts 53°
2026-04-30 19:59 53.35708 -2.26796 267 ft 98 kts 50°
2026-04-30 19:59 53.35935 -2.26332 264 ft 34 kts 51°
2026-04-30 19:59 53.36132 -2.26247 256 ft 9 kts 305°
2026-04-30 20:00 53.36136 -2.26311 256 ft 2 kts 248°
2026-04-30 20:00 53.36134 -2.26315 256 ft 0 kts 247°
2026-04-30 20:00 53.36134 -2.26316 256 ft 1 kts 247°
2026-04-30 20:00 53.36127 -2.26344 256 ft 5 kts 243°
2026-04-30 20:01 53.36062 -2.26482 256 ft 7 kts 230°
2026-04-30 20:01 53.36025 -2.26555 256 ft 10 kts 230°
2026-04-30 20:01 53.35976 -2.26659 256 ft 13 kts 233°
2026-04-30 20:02 53.35897 -2.26844 256 ft 0 kts 234°
2026-04-30 20:02 53.35888 -2.26864 256 ft 4 kts 234°
2026-04-30 20:03 53.35832 -2.26991 256 ft 10 kts 236°
2026-04-30 20:03 53.35788 -2.27107 255 ft 14 kts 232°
2026-04-30 20:03 53.35760 -2.27252 255 ft 15 kts 300°
2026-04-30 20:03 53.35746 -2.27412 255 ft 16 kts 231°
2026-04-30 20:04 53.35675 -2.27582 247 ft 14 kts 272°
2026-04-30 20:04 53.35703 -2.27618 248 ft 6 kts 339°
2026-04-30 20:04 53.35761 -2.27658 251 ft 9 kts 334°
2026-04-30 20:05 53.35858 -2.27820 253 ft 14 kts 315°
2026-04-30 20:05 53.35954 -2.27857 255 ft 16 kts 334°
2026-04-30 20:05 53.36181 -2.28194 255 ft 24 kts 314°
2026-04-30 20:06 53.36283 -2.28367 255 ft 19 kts 315°
2026-04-30 20:06 53.36387 -2.28478 255 ft 18 kts 341°
2026-04-30 20:06 53.36477 -2.28584 255 ft 15 kts 314°
2026-04-30 20:06 53.36561 -2.28729 255 ft 20 kts 310°
2026-04-30 20:07 53.36648 -2.28895 255 ft 14 kts 345°
2026-04-30 20:07 53.36733 -2.29021 255 ft 19 kts 315°
2026-04-30 20:07 53.36949 -2.28805 255 ft 14 kts 44°
2026-04-30 20:08 53.36970 -2.28770 255 ft 1 kts 46°
2026-04-30 20:08 53.36970 -2.28750 255 ft 0 kts 98°
2026-04-30 20:08 53.36962 -2.28728 255 ft 3 kts 130°
2026-04-30 20:08 53.36949 -2.28698 255 ft 0 kts 134°
2026-04-30 20:09 53.36948 -2.28697 255 ft 0 kts 134°